Newark, NJ

5:51 PM EDT on July 24, 2017 (GMT -0400)
Newark International

Weather History for KEWR - December, 2013

Change the Weather History Date:

Saturday, December 21, 2013

  Actual Average Record
Temperature  
Mean Temperature 53 °F 35 °F  
Max Temperature 64 °F 42 °F 64 °F (2013)
Min Temperature 42 °F 28 °F 0 °F (1942)
Degree Days  
Heating Degree Days 12 30  
Month to date heating degree days 600 567  
Since 1 July heating degree days 1470 1435  
Cooling Degree Days 0 0  
Month to date cooling degree days 0 0  
Year to date cooling degree days 1337 1192  
Growing Degree Days 3 (Base 50)    
Moisture  
Dew Point 46 °F    
Average Humidity 78    
Maximum Humidity 96    
Minimum Humidity 60    
Precipitation  
Precipitation T in 0.12 in 2.00 in (1973)
Month to date precipitation 2.74 2.64  
Year to date precipitation 41.06 45.08  
Snow  
Snow 0.00 in 0.20 in 3.30 in (1962)
Month to date snowfall 9.4 3.1  
Since 1 July snowfall 9.4 3.5  
Snow Depth 0.00 in    
Sea Level Pressure  
Sea Level Pressure 29.96 in    
Wind  
Wind Speed 7 mph (SW)    
Max Wind Speed 15 mph    
Max Gust Speed 21 mph    
Visibility 10 miles    
Events      
T = Trace of Precipitation, MM = Missing Value Source: NWS Daily Summary

Daily Weather History Graph

Daily Weather History Graph

Search for Another Location

Airport or City:

Trip Planner

Search our weather history database for the weather conditions in past years. The results will help you decide how hot, cold, wet, or windy it might be!

Date:

Astronomy

Dec. 21, 2013 Rise Set
Actual Time 7:17 AM EST 4:32 PM EST
Civil Twilight 6:46 AM EST 5:03 PM EST
Nautical Twilight 6:11 AM EST 5:38 PM EST
Astronomical Twilight 5:38 AM EST 6:11 PM EST
Moon 8:47 PM EST (12/21) 9:41 AM EST (12/21)
Length of Visible Light 10h 17m
Length of Day
9h 15m
Waning Gibbous, 84% of the Moon is Illuminated
Dec 21
Waning Gibbous
Dec 25
Last Quarter
Jan 1
New
Jan 7
First Quarter
Jan 15
Full

Hourly Weather History & Observations

Time (EST) Temp. Windchill Dew Point Humidity Pressure Visibility Wind Dir Wind Speed Gust Speed Precip Events Conditions
12:51 AM 44.1 °F 40.8 °F 39.0 °F 82% 29.98 in 10.0 mi SW 5.8 mph - 0.00 in   Mostly Cloudy
1:51 AM 43.0 °F 38.8 °F 39.0 °F 86% 29.98 in 10.0 mi SSW 6.9 mph - N/A   Scattered Clouds
2:51 AM 44.1 °F - 41.0 °F 89% 29.99 in 10.0 mi Calm Calm - N/A   Scattered Clouds
3:51 AM 46.0 °F 43.9 °F 43.0 °F 89% 29.98 in 10.0 mi South 4.6 mph - N/A   Overcast
4:51 AM 45.0 °F 42.6 °F 43.0 °F 93% 29.98 in 10.0 mi SW 4.6 mph - N/A   Mostly Cloudy
5:51 AM 45.0 °F 43.5 °F 42.1 °F 90% 29.99 in 10.0 mi West 3.5 mph - N/A   Overcast
6:51 AM 43.0 °F 39.5 °F 41.0 °F 93% 29.98 in 10.0 mi SSW 5.8 mph - N/A   Mostly Cloudy
7:51 AM 46.9 °F - 45.0 °F 93% 29.99 in 9.0 mi SW 8.1 mph - N/A   Mostly Cloudy
8:51 AM 50.0 °F - 46.9 °F 89% 30.00 in 10.0 mi SW 8.1 mph - N/A   Mostly Cloudy
9:51 AM 52.0 °F - 46.9 °F 83% 30.01 in 10.0 mi SW 9.2 mph - N/A   Mostly Cloudy
10:51 AM 54.0 °F - 48.0 °F 80% 30.00 in 10.0 mi SW 10.4 mph - N/A   Mostly Cloudy
11:51 AM 57.0 °F - 48.0 °F 72% 29.96 in 10.0 mi SW 10.4 mph - N/A   Mostly Cloudy
12:51 PM 59.0 °F - 48.0 °F 67% 29.93 in 10.0 mi SW 13.8 mph - N/A   Mostly Cloudy
1:51 PM 62.1 °F - 48.9 °F 62% 29.91 in 10.0 mi SW 8.1 mph - N/A   Mostly Cloudy
2:51 PM 63.0 °F - 48.9 °F 60% 29.90 in 10.0 mi WSW 5.8 mph - N/A   Mostly Cloudy
3:51 PM 62.1 °F - 48.9 °F 62% 29.92 in 10.0 mi West 5.8 mph - N/A   Mostly Cloudy
4:51 PM 57.9 °F - 48.0 °F 70% 29.94 in 10.0 mi SW 6.9 mph - N/A   Mostly Cloudy
5:51 PM 59.0 °F - 48.9 °F 69% 29.94 in 10.0 mi SSE 3.5 mph - N/A   Mostly Cloudy
6:51 PM 57.0 °F - 48.9 °F 74% 29.95 in 10.0 mi Calm Calm - N/A   Mostly Cloudy
7:51 PM 57.9 °F - 51.1 °F 78% 29.94 in 10.0 mi South 8.1 mph - N/A   Mostly Cloudy
8:51 PM 59.0 °F - 51.1 °F 75% 29.94 in 10.0 mi SSW 12.7 mph - N/A   Mostly Cloudy
9:51 PM 60.1 °F - 53.1 °F 78% 29.93 in 10.0 mi SSW 11.5 mph - 0.01 in   Mostly Cloudy
10:51 PM 57.9 °F - 52.0 °F 81% 29.92 in 10.0 mi South 6.9 mph - N/A   Mostly Cloudy
11:51 PM 57.9 °F - 53.1 °F 84% 29.91 in 10.0 mi SSW 6.9 mph - N/A   Mostly Cloudy